Location: Marcé
(47.5801°N, 0.3280°W)
Time: 08:59:05
(UTC+01:00)

Tiros 1 despin weight - Pass Details

Date: 17 December 2021
Orbit: 592 x 641 km, 48.2° (Epoch: 25 January)

Event Time Altitude Azimuth Distance (km) Brightness Sun altitude
Rises 14:47:07 0° 284° (WNW) 2,847 ? 14.9°
Reaches altitude 10° 14:49:39 10° 273° (W) 1,935 ? 14.7°
Maximum altitude 14:53:25 28° 215° (SW) 1,131 ? 14.4°
Drops below altitude 10° 14:57:09 10° 156° (SSE) 1,915 ? 14.1°
Sets 14:59:39 0° 145° (SE) 2,811 ? 13.9°
